Hourly Data Report for September 22, 2016

SHEARWATER RCS
NOVA SCOTIA

44°37'47.000" N
63°30'48.000" W
24.00 m
8205092
71264
AAW

Download Data

Hourly Data (September 2016)
Hourly Data Report for September 22, 2016
TIME Temp Definition
°C
Dew Point Definition
°C
Rel Hum Definition
%
Wind Dir Definition
10's deg

Wind Spd Definition
km/h
Visibility Definition
km
Stn Press Definition
kPa
Hmdx Definition


Wind Chill Definition


Weather Definition


00:00 15.0 10.1 72 33 3   101.44     LegendNANA
01:00 16.5 10.2 66 27 9   101.44     LegendNANA
02:00 14.7 10.2 74 28 3   101.45     LegendNANA
03:00 13.1 10.1 82 30 5   101.44     LegendNANA
04:00 13.2 9.2 77 30 4   101.43     LegendNANA
05:00 12.6 9.6 82 29 6   101.47     LegendNANA
06:00 12.2 9.4 83 30 3   101.52     LegendNANA
07:00 15.0 9.9 72 31 6   101.53     LegendNANA
08:00 17.5 10.0 61 30 9   101.57     LegendNANA
09:00 20.0 10.6 55 28 8   101.59     LegendNANA
10:00 22.2 9.8 45 28 10   101.55     LegendNANA
11:00 23.4 8.4 38 29 14   101.50     LegendNANA
12:00 23.8 6.8 34 29 14   101.50     LegendNANA
13:00 23.9 6.7 33 29 13   101.46     LegendNANA
14:00 24.1 5.8 31 29 14   101.42     LegendNANA
15:00 23.4 5.1 31 30 21   101.42     LegendNANA
16:00 22.4 5.4 33 30 16   101.46     LegendNANA
17:00 20.8 5.9 38 31 18   101.53     LegendNANA
18:00 18.7 6.9 46 33 17   101.63     LegendNANA
19:00 17.1 7.1 52 34 6   101.69     LegendNANA
20:00 16.0 7.6 58 33 7   101.73     LegendNANA
21:00 15.7 8.2 61 34 9   101.70     LegendNANA
22:00 15.2 8.8 66 33 8   101.72     LegendNANA
23:00 12.4 8.6 77 4 1   101.71     LegendNANA

Notes on Data Quality.

Legend

  • E = Estimated
  • M = Missing
  • NA = Not Available*
  • [empty] = Indicates an unobserved value
Date modified: